Find Starlink 36984

NORAD ID: 68168 Int'l Des: 2026-050 Owner: SPXS Country: US Constellation: starlink operational
LEOCIRCULAR

实时位置

正在加载3D地球...

关于 Starlink 36984

正在加载描述...

即将过境

Passes for default location (London). Set your location on the main map for personalized predictions.

高度历史

Loading altitude history...

两行轨道根数

1 68168U 26050B 26121.14503980 .00084956 00000-0 19386-2 0 9995
2 68168 53.1603 24.5902 0001302 79.2459 280.8694 15.42183656 8694
Epoch: May 1, 2026 • Age: 6 hours

当前状态

高度 446.5 km
速度 7.64 km/s
星下点 -23.19°S, 1.81°E
发射日期 Mar 14, 2026
运行时间 0.1 years
类型 internet

技术详情

分类 Payload
质量 575.00 kg
干质量 530.00 kg
总质量 575.00 kg
长度 0.30 m
直径 4.10 m
跨度 29.00 m
形状 Box + pan
制造商 SPXS
平台类型 Starlink V2MO
阶段状态 In Orbit
所有者/国家 SPXS/US

Most Searched